Meath Environmental Platform

Observations for Trim Market St

Time AQI Temp °C Hum % Pres Pa CO μg/m³ H₂S μg/m³ NO μg/m³ NO₂ μg/m³ O₃ μg/m³ SO₂ μg/m³ PM1 μg/m³ PM2.5 μg/m³ PM10 μg/m³
Wednesday 15 July 2026
20:15 1 24.6 51 55,783 0 0 0 7.34 38.92 0 10.69 15.24 20.85
20:14 1 24.6 51 55,729 0 0 0 7.06 38.7 0 9.98 12.69 17.17
20:13 1 24.6 51 55,708 0 0 0 6.97 36.38 0 8.55 12.19 16.43
20:12 1 24.7 51 55,717 0 0 0 7.75 37.59 0 7.13 11.67 15.69
20:11 1 24.7 50 55,739 0 0 0 6.86 36.77 0 7.84 11.17 14.95
20:10 1 24.7 50 55,774 0 0 0 7.87 35.13 0 7.84 10.66 14.96
20:09 1 24.8 50 55,829 0 0 0 8.25 37.75 0 7.13 10.67 14.97
20:08 1 24.8 50 55,902 0 0 0 7.87 32.51 0 7.13 11.19 15.72
20:07 1 24.8 50 56,003 0 0 0 7.48 37.34 0 7.84 10.68 15.72
20:06 1 24.8 50 56,152 0 0 0 5.09 38.84 0 7.13 10.68 14.98
20:02 1 25 50 56,563 0 0 0 7.57 37 0 8.55 11.73 15.75
20:00 1 25.1 50 56,845 0 0 0 6.85 36.69 0 8.55 13.29 18.75
19:58 1 25.1 49 57,027 0 0 0 6.88 37.68 0 9.26 11.75 16.52
19:50 1 25.3 49 59,079 0 0 0 5.8 37.36 0 9.26 13.35 18.07
19:48 1 25.4 48 59,376 0 0 0 7.1 35.9 0 7.84 11.3 15.07
19:47 1 25.4 48 59,557 0 0 0 6.11 33.29 0 8.55 11.82 16.59
19:46 1 25.4 48 59,674 0 0 0 6.41 36.53 0 8.55 13.37 18.85
19:45 1 25.5 48 59,745 0 0 0 5.99 33.25 0 9.26 12.35 17.35
19:43 1 25.5 48 59,737 0 0 0 6.49 31.3 0 7.84 11.31 15.08
19:41 1 25.6 48 59,676 0 0 0 7.78 33.78 0 8.55 11.84 15.85